Location: Leeds
(37.2390°N, 113.3580°W)
Time: 03:30:20
(UTC-07:00)

Daily predictions for brighter satellites

Satellite Brightness Start Highest point End
(mag) Time Altitude Azimuth Time Altitude Azimuth Time Altitude Azimuth
Cosmos 1238 Rocket 4.1 04:54:49 55° ENE 04:55:19 57° E 05:01:13 10° SSE
USA 215 3.5 04:54:20 10° NE 05:00:50 65° SE 05:03:49 34° SSW
Cosmos 921 Rocket 3.7 05:11:05 55° ESE 05:11:05 55° ESE 05:14:49 10° SSE
DNEPR-1 R/B 4.5 05:10:32 69° W 05:11:01 72° WNW 05:17:13 10° NNE
Cosmos 44 Rocket 4.1 05:09:02 22° S 05:12:13 52° ESE 05:17:13 10° NE
CENTAUR R/B 4.0 05:14:52 23° N 05:14:52 23° N 05:18:17 10° NNE
Cosmos 1603 3.7 05:11:08 25° SSW 05:14:34 79° ESE 05:20:15 10° NNE
Lacrosse 5 2.1 05:14:07 64° SSE 05:14:37 69° SE 05:19:42 10° NE
Cosmos 2369 Rocket 4.1 05:10:42 10° N 05:15:20 25° ENE 05:19:57 10° ESE
Meteor 1-17 Rocket 4.5 05:21:07 10° SSW 05:26:38 73° W 05:32:09 10° N
COSMO-SKYMED 1 3.7 05:23:09 10° SE 05:27:13 42° ENE 05:30:31 15° N
Meteor 1-18 Rocket 4.2 05:29:57 47° NW 05:31:29 64° W 05:37:18 10° S
Feng Yun 1-1 Rocket 4.1 05:26:53 10° N 05:32:23 61° WNW 05:37:43 10° SSW
Meteor 1-20 Rocket 4.1 05:30:20 10° SSW 05:35:49 58° W 05:41:15 10° N
Cosmos 1943 3.9 05:33:12 10° S 05:38:38 54° ESE 05:44:08 10° NNE
Tiangong 2 2.9 05:44:45 25° NNE 05:44:45 25° NNE 05:46:44 10° ENE
NOAA 6 3.9 05:38:52 10° N 05:44:00 79° WNW 05:49:07 10° SSW
Cosmos 1300 Rocket 3.4 05:41:34 10° S 05:46:00 83° W 05:50:25 10° N
CRYOSAT 2 4.2 05:43:38 10° S 05:48:31 83° W 05:53:26 10° N
Cosmos 1633 2.6 05:45:24 10° S 05:49:01 76° E 05:52:40 10° N
GPS 2-05 Rocket1 3.5 05:52:54 41° SSW 05:53:10 42° SSW 05:56:35 10° ESE
Nadezhda 3 Rocket 4.1 05:50:42 10° N 05:57:06 80° E 06:03:27 10° S
SKYMED 3 4.4 05:52:53 10° SSE 05:57:13 86° WSW 06:00:55 14° NNW
Cosmos 1943 Rocket 4.1 05:52:51 10° N 05:57:17 24° ENE 06:01:43 10° ESE
BREEZE-M DEB (TANK) 4.0 05:55:05 30° WSW 05:57:26 76° NNW 06:11:08 10° NE
SL-16 R/B 4.1 06:03:59 13° NNW 06:03:59 13° NNW 06:04:53 10° NNW
Cosmos 1602 3.7 05:59:59 10° SSW 06:03:52 59° W 06:07:48 10° N
OAO 3 Copernicus 4.5 06:03:50 29° W 06:06:22 65° S 06:11:24 10° ESE
USA 129 4.5 06:05:46 10° ESE 06:07:21 19° ENE 06:08:59 10° NNE
Cosmos 962 Rocket 4.5 06:04:36 10° S 06:10:46 90° W 06:17:03 10° N
Cosmos 44 3.4 06:05:26 10° SSW 06:10:49 81° WNW 06:16:05 10° NNE
Okean 1 4.4 06:11:39 26° WSW 06:11:39 26° WSW 06:14:28 10° SSW
USA 229 DEB 4.1 06:04:35 10° SSW 06:11:23 69° ESE 06:18:17 10° NE
USA 229 4.1 06:04:42 10° SSW 06:11:30 68° ESE 06:18:23 10° NE
Meteor 1-19 Rocket 4.2 06:09:21 10° NNW 06:15:12 77° W 06:20:56 10° S
SKYMED 2 3.7 06:11:03 10° S 06:15:16 52° W 06:19:09 12° NNW
Abrixas rocket 3.1 06:16:06 31° NW 06:16:36 32° NNW 06:19:41 10° NE
Cosmos 2056 Rocket 3.7 06:14:22 18° NW 06:17:53 46° WSW 06:22:44 10° S
Cosmos 2341 Rocket 3.9 06:12:39 10° S 06:18:58 78° W 06:25:15 10° N
Meteor 1-28 Rocket 3.1 06:15:31 10° SSE 06:19:17 88° W 06:23:07 10° NNW
Meteor 2-13 Rocket 4.5 06:14:26 10° SSW 06:20:29 59° W 06:26:34 10° N
Meteor 1-11 Rocket 3.8 06:15:29 10° SSW 06:21:13 57° W 06:26:54 10° N
Cosmos 1346 Rocket 3.9 06:22:47 22° W 06:22:52 22° W 06:25:56 10° SW
Ariane Rocket 3.1 06:26:03 10° N 06:30:57 52° WNW 06:35:51 10° SSW
YAOGAN 3 4.5 06:28:22 10° N 06:32:44 78° WNW 06:37:05 10° SSW
Cosmos 1340 3.5 06:30:32 10° N 06:34:15 53° E 06:37:57 10° SSE
PSLV R/B 3.8 06:35:20 18° W 06:37:36 48° SSW 06:40:51 10° SE
Okean 2 3.6 06:36:01 10° N 06:40:14 78° E 06:44:22 10° S
Meteor 1-23 Rocket 4.1 06:36:33 10° NNW 06:42:06 73° W 06:47:37 10° S
CSL-04 Rocket 3.8 06:37:50 10° N 06:43:13 54° WNW 06:48:32 10° SSW
USA 215 3.8 06:37:40 10° NNE 06:43:33 38° NNW 06:49:26 10° W
CZ-3 R/B 2.7 06:35:54 10° WSW 06:44:00 28° S 06:47:18 10° SE
CZ-2C R/B 3.0 06:39:23 10° NNE 06:44:32 66° E 06:49:31 10° S
Cosmos 1025 Rocket 3.2 06:40:31 10° NNW 06:44:48 53° W 06:49:01 10° S
YAOGAN 1 3.2 06:43:10 10° NNE 06:47:28 61° E 06:51:44 10° S
CSL-04 Debris 4.3 06:42:30 10° N 06:47:52 57° WNW 06:53:12 10° SSW
Meteor 2-4 Rocket 3.9 06:47:11 10° NNW 06:52:30 49° W 06:57:57 10° SSW
IDEFIX/ARIANE 42P 2.9 06:47:18 10° NNE 06:52:31 74° ESE 06:57:42 10° S
CZ-4 R/B 1.2 06:51:20 10° N 06:55:15 68° WNW 06:59:06 10° SSW
Cosmos 1536 3.9 06:52:12 10° SW 06:55:26 23° WNW 06:58:41 10° NNW
Lacrosse 5 3.1 06:53:59 10° W 06:58:00 23° NW 07:02:03 10° NNE
Cosmos 2369 Rocket 2.6 06:54:09 10° NW 06:59:32 44° WSW 07:04:53 10° S
Meteor 1-5 Rocket 4.2 06:54:58 10° SSW 07:00:12 53° WNW 07:05:23 10° N
Cosmos 1544 Rocket 3.6 06:56:33 10° SSW 07:00:50 60° W 07:05:10 10° N
Meteor 2-19 Rocket 4.5 06:56:37 10° SSW 07:02:41 67° W 07:08:46 10° N
COSMO-SKYMED 1 4.3 07:01:07 10° SW 07:03:33 15° W 07:06:00 10° WNW
Cosmos 1900 4.3 06:59:38 10° NNW 07:04:33 79° WSW 07:09:30 10° SSE
Cosmos 1484 Rocket 4.2 07:02:02 10° NNE 07:05:40 43° E 07:09:20 10° S
SJ-12 4.0 07:02:40 10° N 07:06:46 57° WNW 07:10:49 10° SSW
Cosmos 1452 Rocket 4.0 07:02:15 10° NNW 07:07:10 40° WSW 07:12:02 10° S
Meteor 1-12 Rocket 4.4 07:03:25 10° S 07:09:02 82° E 07:14:43 10° N
CORIOLIS 4.2 07:04:26 10° NNE 07:09:49 89° E 07:15:10 10° SSW
